星链-31629 (STARLINK-31629 )

导读 | 星芒AI

STARLINK-31629 是 SpaceX Starlink 卫星互联网项目中的第 31629 颗卫星。该卫星属于 Starlink 群体部署计划的一部分,旨在通过低地球轨道卫星提供全球高速互联网服务。它于 2023 年发射,采用先进的推进和通信技术,具备自动避障功能,以减少与其他卫星或太空碎片的碰撞风险。STARLINK-31629 有助于提升 Starlink 网络的覆盖范围和连接稳定性,特别是在偏远和网络基础设施薄弱的地区。

基本信息
目录编号:
59255
目录名称:
STARLINK-31629
国际标识:
2024-050B
轨道中心:
EARTH
卫星名称:
星链-31629
卫星全名:
星链-31629 (STARLINK-31629 )
卫星状态:
在轨 (已飞行641 天)
发射日期:
2024-03-19 UTC
国别 :
美国 (US)
星等 :
--
轨道信息
数据来源 国际轨道数据
星历时间: 2025-12-20T04:18:50+0800
4小时前
查看轨道信息
半长轴: 6853.376km
偏心率: 0.0001272
轨道倾角: 53.160°
近地点辐角 86.561°
升交点赤经 191.899°
平近点角 273.553°
近地点: 474.367km
远地点: 476.111km
周期: 94.106分钟
每日圈数: 15.30192
详细信息
固有亮度:
5
最大亮度:
0.3
卫星平台:
Starlink v2.0 mini
覆盖范围:
全球
运营商:
太空探索技术公司
运营商所在国:
美国
制造商(研发单位):
太空探索技术公司
制造商所在国:
美国
使用方式:
暂无
卫星简介
星链(Starlink)计划是由太空探索技术公司(SpaceX)提出的一个巨型低轨卫星互联网星座项目,计划在2019年至2024年间在太空搭建由约1.2万颗卫星组成的“星链”网络,其中1584颗将部署在地球上空550千米处的近地轨道,并从2020年开始工作。该卫星仍在工作。
2D轨道图
3D轨道图
轨道高度分析图
轨道倾角分析图
轨道综合分析图
查看轨道综合分析图